Weather History for Big Piney, WY

Change the Weather History Date:

Wednesday, May 13, 2009

  Actual Average Record
Temperature  
Mean Temperature 36 °F 45 °F  
Max Temperature 50 °F 61 °F 80 °F (2013)
Min Temperature 24 °F 29 °F 17 °F (2000)
Degree Days  
Heating Degree Days 29 20  
Month to date heating degree days 285  
Since 1 July heating degree days 9816  
Cooling Degree Days 0 0  
Month to date cooling degree days 0  
Year to date cooling degree days 0  
Moisture  
Dew Point 5 °F    
Average Humidity 27    
Maximum Humidity 55    
Minimum Humidity 12    
Precipitation  
Precipitation 0.00 in 0.03 in 0.75 in (1998)
Month to date precipitation 0.33  
Year to date precipitation 1.96  
Sea Level Pressure  
Sea Level Pressure 29.99 in    
Wind  
Wind Speed 16 mph (NW)    
Max Wind Speed 30 mph    
Max Gust Speed 38 mph    
Visibility 10 miles    
Events      
T = Trace of Precipitation, MM = Missing Value Source: NWS Daily Summary

Daily Weather History Graph

Daily Weather History Graph

Search for Another Location

Airport:

Trip Planner

Search our weather history database for the weather conditions in past years. The results will help you decide how hot, cold, wet, or windy it might be!

Date:

Astronomy

May. 13, 2009 Rise Set
Actual Time 6:00 AM MDT 8:34 PM MDT
Civil Twilight 5:28 AM MDT 9:06 PM MDT
Nautical Twilight 4:47 AM MDT 9:46 PM MDT
Astronomical Twilight 4:02 AM MDT 10:32 PM MDT
Moon 12:16 AM MDT (5/13) 9:11 AM MDT (5/13)
Length of Visible Light 15h 38m
Length of Day
14h 33m
Waning Gibbous, 81% of the Moon is Illuminated
May 13
Waning Gibbous
May 17
Last Quarter
May 24
New
May 30
First Quarter
Jun 7
Full

Hourly Weather History & Observations

Time (MDT) Temp. Windchill Dew Point Humidity Pressure Visibility Wind Dir Wind Speed Gust Speed Precip Events Conditions
12:53 AM 34.0 °F 22.7 °F 10.0 °F 37% 29.75 in 10.0 mi NW 19.6 mph 29.9 mph N/A   Clear
1:53 AM 33.1 °F 19.1 °F 9.0 °F 37% 29.80 in 10.0 mi NW 29.9 mph 38.0 mph N/A   Clear
2:53 AM 30.9 °F 18.7 °F 6.1 °F 35% 29.81 in 10.0 mi WNW 19.6 mph 29.9 mph N/A   Clear
3:53 AM 30.9 °F 17.2 °F 1.9 °F 29% 29.83 in 10.0 mi NW 25.3 mph 31.1 mph N/A   Clear
4:53 AM 27.0 °F 14.7 °F 6.1 °F 41% 29.86 in 10.0 mi NNW 16.1 mph - N/A   Clear
5:53 AM 24.1 °F 13.7 °F 10.0 °F 55% 29.95 in 10.0 mi NNW 10.4 mph - N/A   Clear
6:53 AM 28.0 °F 18.1 °F 7.0 °F 41% 29.99 in 10.0 mi NNW 11.5 mph - N/A   Clear
7:53 AM 30.9 °F 19.1 °F 5.0 °F 33% 30.03 in 10.0 mi NW 18.4 mph 27.6 mph N/A   Clear
8:53 AM 34.0 °F 23.0 °F 5.0 °F 30% 30.04 in 10.0 mi NNW 18.4 mph 26.5 mph N/A   Clear
9:53 AM 37.0 °F 27.7 °F 5.0 °F 26% 30.09 in 10.0 mi North 16.1 mph 23.0 mph N/A   Clear
10:53 AM 39.0 °F 32.3 °F 3.0 °F 22% 30.08 in 10.0 mi NNW 10.4 mph 20.7 mph N/A   Clear
11:53 AM 42.1 °F 35.2 °F 1.9 °F 19% 30.08 in 10.0 mi NNE 12.7 mph 20.7 mph N/A   Clear
12:53 PM 43.0 °F 36.8 °F 3.0 °F 19% 30.07 in 10.0 mi NNW 11.5 mph - N/A   Clear
1:53 PM 45.0 °F 40.6 °F 1.9 °F 17% 30.06 in 10.0 mi NNW 8.1 mph 20.7 mph N/A   Clear
2:53 PM 46.9 °F - 1.0 °F 15% 30.06 in 10.0 mi North 8.1 mph - N/A   Clear
3:53 PM 48.9 °F - 1.9 °F 15% 30.04 in 10.0 mi WSW 12.7 mph - N/A   Clear
4:53 PM 48.0 °F - 1.9 °F 15% 30.05 in 10.0 mi Variable 3.5 mph - N/A   Clear
5:53 PM 48.0 °F - -0.9 °F 13% 30.08 in 10.0 mi Variable 4.6 mph - N/A   Clear
6:53 PM 48.9 °F - -2.0 °F 12% 30.02 in 10.0 mi South 5.8 mph - N/A   Clear
7:53 PM 46.9 °F - 1.9 °F 16% 30.02 in 10.0 mi South 6.9 mph - N/A   Clear
8:53 PM 42.1 °F 37.7 °F 6.1 °F 23% 30.03 in 10.0 mi South 6.9 mph - N/A   Clear
9:53 PM 39.0 °F 33.4 °F 9.0 °F 29% 30.04 in 10.0 mi SW 8.1 mph - N/A   Clear
10:53 PM 39.0 °F 32.8 °F 10.9 °F 32% 30.01 in 10.0 mi NNW 9.2 mph - N/A   Overcast
11:53 PM 37.9 °F 32.1 °F 15.1 °F 39% 30.00 in 10.0 mi NNW 8.1 mph - N/A   Overcast